COSMOS 1275 DEB, 42125

Orbit data source: Space-Track

COSMOS 1275 DEB, 42125 is space debris in LEO originally from a launch on Thu, 04 Jun 1981 UTC launched from the Plesetsk Missile And Space Complex (PKMTR). Debris objects in space refer to the collection of defunct objects orbiting the Earth. Examples of debris include non-operational satellites, rocket bodies, and fragments generated from explosions, collisions, or faulty payload assembly.

Loading next visibility...
Identifier
42125, 1981-053QM
Orbit
LEO
Country
Flag of CISCIS
Related business
Manufacturer
Unknown
Mission
Spacecraft
Bus & Motor
Unknown
Mass
Unknown
Launch date (UTC)
1981-06-04 (45 years ago)
Launch vehicle
Unknown
Launch site
Plesetsk Missile And Space Complex (PKMTR)
Object type
Payload
Rocket body
Debris
Shape & HBR
Unknown shape, 0.1 m
Radar Cross Section
Small (<0.1 m²)

Expand to show TLE details & history
Last TLE update: 5 days ago

TLE from 5 days ago
0 COSMOS 1275 DEB
1 42125U 81053QM  26068.59269817  .00002904  00000-0  16399-2 0  9995
2 42125  82.9392  17.3423 0055632  84.4653 276.2864 14.09152711583349
Epoch: 2026-03-09T14:13Z
TLE epoch observation values (Epoch: 2026-03-09T14:13:29.121Z)
Latitude
-0.00003°
Longitude
-3.31247°
Altitude
861.03 km
Speed
7.424 km/s
True Right ascension
01h 09m 22s
True Declination
0° 00' 00"
Sunlit
Object was in daylight at epoch
Visualization orbit readout
Latitude
Unknown
Longitude
Unknown
Altitude
Unknown
Speed
Unknown
Apparent Right ascension
Unknown
Apparent Declination
Unknown
Sunlit
N/A
Visualization observer readout
Local Sidereal Time
09:59:23
Azimuth
Unknown
Elevation
Unknown
Doppler factor
Unknown
Orbital elements
Apogee altitude
899.638 km
Perigee altitude
819.111 km
Semi-major axis
7,237.511 km
Eccentricity
0.00556
Inclination
82.9392°
RAAN
17.3423°
Arg. of periapsis
84.4653°
True anomaly
275.65227°
Mean anomaly
276.2864°
Eccentric anomaly
275.96938°
Mean motion
3.525 °/min
Orbital period
102.13 mins
BSTAR
0.0016399
Loading maneuver chart data...
Computing Atmospheric mass density...
Loading historical data...
Loading historical data...
Loading historical data...
Loading historical data...
Loading historical data...
Loading historical data...
Loading historical data...

Documentation

Showing up to 5 results
|